Plymouth, NH

2:36 PM EDT on September 26, 2017 (GMT -0400)
Plymouth

Weather History for K1P1 - July, 2013

Change the Weather History Date:

Tuesday, July 16, 2013

  Actual Average (KLCI) Record (KLCI)
Temperature  
Mean Temperature 76 °F -  
Max Temperature 88 °F 81 °F 91 °F (1999)
Min Temperature 63 °F 60 °F 46 °F (2015)
Cooling Degree Days 10    
Growing Degree Days 26 (Base 50)    
Moisture  
Dew Point 64 °F    
Average Humidity 68    
Maximum Humidity 95    
Minimum Humidity 40    
Precipitation  
Precipitation 0.00 in - - ()
Sea Level Pressure  
Sea Level Pressure 30.16 in    
Wind  
Wind Speed 4 mph (WNW)    
Max Wind Speed 13 mph    
Max Gust Speed 18 mph    
Visibility 10 miles    
Events      
Averages and records for this station are not official NWS values.
T = Trace of Precipitation, MM = Missing Value Source: NWS Daily Summary

Daily Weather History Graph

Daily Weather History Graph

Search for Another Location

Airport or City:

Trip Planner

Search our weather history database for the weather conditions in past years. The results will help you decide how hot, cold, wet, or windy it might be!

Date:

Astronomy

Jul. 16, 2013 Rise Set
Actual Time 5:19 AM EDT 8:25 PM EDT
Civil Twilight 4:45 AM EDT 9:00 PM EDT
Nautical Twilight 4:00 AM EDT 9:44 PM EDT
Astronomical Twilight 3:07 AM EDT 10:37 PM EDT
Moon 1:59 PM EDT (7/16) No Moon Set
Length of Visible Light 16h 15m
Length of Day
15h 05m
First Quarter, 56% of the Moon is Illuminated
Jul 16
First Quarter
Jul 22
Full
Jul 29
Last Quarter
Aug 6
New
Aug 14
First Quarter

Hourly Weather History & Observations

Time (EDT) Temp. Heat Index Dew Point Humidity Pressure Visibility Wind Dir Wind Speed Gust Speed Precip Events Conditions
12:15 AM 66.7 °F - 64.8 °F 93% 30.17 in 10.0 mi Calm Calm - N/A   Clear
12:35 AM 67.6 °F - 64.4 °F 89% 30.17 in 10.0 mi Calm Calm - N/A   Clear
12:55 AM 69.8 °F - 63.5 °F 80% 30.17 in 10.0 mi WNW 3.5 mph - N/A   Clear
1:15 AM 69.3 °F - 63.1 °F 81% 30.16 in 10.0 mi WNW 3.5 mph - N/A   Clear
1:35 AM 68.9 °F - 63.3 °F 82% 30.16 in 10.0 mi WNW 3.5 mph - N/A   Clear
1:55 AM 68.9 °F - 63.0 °F 81% 30.16 in 10.0 mi West 3.5 mph - N/A   Clear
2:15 AM 68.2 °F - 63.1 °F 84% 30.16 in 10.0 mi WNW 4.6 mph - N/A   Clear
2:35 AM 67.8 °F - 63.3 °F 85% 30.16 in 10.0 mi WNW 5.8 mph - N/A   Clear
2:55 AM 68.0 °F - 63.5 °F 85% 30.16 in 10.0 mi WNW 4.6 mph - N/A   Scattered Clouds
3:15 AM 68.0 °F - 63.5 °F 85% 30.16 in 10.0 mi WNW 4.6 mph - N/A   Mostly Cloudy
3:35 AM 67.8 °F - 63.3 °F 85% 30.16 in 10.0 mi NW 6.9 mph - N/A   Scattered Clouds
3:55 AM 68.0 °F - 63.1 °F 84% 30.16 in 10.0 mi WNW 6.9 mph - N/A   Scattered Clouds
4:15 AM 68.4 °F - 63.1 °F 83% 30.16 in 10.0 mi NW 5.8 mph - N/A   Scattered Clouds
4:35 AM 67.6 °F - 63.0 °F 85% 30.16 in 10.0 mi WNW 3.5 mph - N/A   Clear
4:55 AM 64.9 °F - 62.1 °F 90% 30.16 in 10.0 mi Calm Calm - N/A   Clear
5:15 AM 64.2 °F - 61.7 °F 91% 30.17 in 10.0 mi Calm Calm - N/A   Clear
5:35 AM 63.7 °F - 61.9 °F 94% 30.17 in 7.0 mi Calm Calm - N/A   Clear
5:55 AM 63.3 °F - 61.7 °F 94% 30.17 in 5.0 mi Calm Calm - N/A   Clear
6:15 AM 63.5 °F - 61.9 °F 94% 30.18 in 5.0 mi Calm Calm - N/A   Clear
6:35 AM 64.0 °F - 62.6 °F 95% 30.18 in 5.0 mi Calm Calm - N/A   Clear
6:55 AM 66.4 °F - 63.9 °F 92% 30.18 in 10.0 mi Calm Calm - N/A   Clear
7:15 AM 69.3 °F - 64.6 °F 85% 30.18 in 10.0 mi Calm Calm - N/A   Clear
7:35 AM 70.2 °F - 64.2 °F 81% 30.18 in 10.0 mi Calm Calm - N/A   Clear
7:55 AM 72.0 °F - 65.3 °F 79% 30.18 in 10.0 mi Calm Calm - N/A   Clear
8:15 AM 74.7 °F - 66.0 °F 74% 30.18 in 10.0 mi Calm Calm - N/A   Clear
8:35 AM 78.1 °F - 65.8 °F 66% 30.18 in 10.0 mi WNW 5.8 mph - N/A   Clear
8:55 AM 79.2 °F - 65.1 °F 62% 30.18 in 10.0 mi WNW 8.1 mph - N/A   Clear
9:15 AM 79.9 °F - 65.8 °F 62% 30.18 in 10.0 mi WNW 9.2 mph - N/A   Clear
9:35 AM 81.0 °F 83.2 °F 66.4 °F 61% 30.18 in 10.0 mi West 9.2 mph - N/A   Clear
9:55 AM 81.9 °F 84.1 °F 66.4 °F 59% 30.18 in 10.0 mi West 10.4 mph - N/A   Clear
10:15 AM 82.4 °F 84.4 °F 65.8 °F 57% 30.18 in 10.0 mi West 9.2 mph - N/A   Clear
10:35 AM 83.3 °F 85.3 °F 65.5 °F 55% 30.18 in 10.0 mi West 9.2 mph - N/A   Clear
10:55 AM 84.2 °F 85.8 °F 64.8 °F 52% 30.18 in 10.0 mi West 8.1 mph - N/A   Clear
11:15 AM 84.7 °F 86.1 °F 64.4 °F 50% 30.17 in 10.0 mi WNW 9.2 mph 17.3 mph N/A   Clear
11:35 AM 85.3 °F 86.4 °F 63.7 °F 48% 30.17 in 10.0 mi WNW 10.4 mph 17.3 mph N/A   Clear
11:55 AM 86.0 °F 87.1 °F 63.3 °F 47% 30.17 in 10.0 mi NW 12.7 mph - N/A   Clear
12:15 PM 86.5 °F 87.3 °F 63.1 °F 45% 30.17 in 10.0 mi NNW 9.2 mph - N/A   Clear
12:35 PM 86.9 °F 88.1 °F 63.7 °F 46% 30.17 in 10.0 mi NW 9.2 mph - N/A   Scattered Clouds
12:55 PM 85.5 °F 86.8 °F 64.2 °F 49% 30.17 in 10.0 mi NW 8.1 mph - N/A   Mostly Cloudy
1:15 PM 87.1 °F 88.0 °F 63.5 °F 45% 30.17 in 10.0 mi WNW 6.9 mph 16.1 mph N/A   Mostly Cloudy
1:35 PM 86.9 °F 87.5 °F 62.6 °F 44% 30.16 in 10.0 mi WNW 6.9 mph 18.4 mph N/A   Mostly Cloudy
1:55 PM 87.1 °F 88.3 °F 64.2 °F 46% 30.16 in 10.0 mi West 12.7 mph 16.1 mph N/A   Scattered Clouds
2:15 PM 87.3 °F 88.6 °F 64.0 °F 46% 30.15 in 10.0 mi WNW 8.1 mph - N/A   Mostly Cloudy
2:35 PM 88.3 °F 90.2 °F 65.1 °F 46% 30.15 in 10.0 mi WNW 9.2 mph - N/A   Mostly Cloudy
2:55 PM 88.0 °F 89.3 °F 64.4 °F 45% 30.15 in 10.0 mi North 8.1 mph 17.3 mph N/A   Mostly Cloudy
3:15 PM 87.8 °F 89.7 °F 65.1 °F 47% 30.15 in 10.0 mi WNW 8.1 mph - N/A   Overcast
3:35 PM 86.0 °F 87.9 °F 65.1 °F 50% 30.15 in 10.0 mi NW 5.8 mph - N/A   Overcast
3:55 PM 88.0 °F 90.3 °F 66.2 °F 48% 30.15 in 10.0 mi West 9.2 mph - N/A   Scattered Clouds
4:55 PM 88.5 °F 90.1 °F 64.9 °F 45% 30.14 in 10.0 mi WNW 4.6 mph - N/A   Scattered Clouds
5:15 PM 88.0 °F 88.7 °F 63.1 °F 43% 30.14 in 10.0 mi NW 6.9 mph - N/A   Clear
5:35 PM 88.7 °F 89.4 °F 62.8 °F 42% 30.14 in 10.0 mi WNW 8.1 mph - N/A   Clear
5:55 PM 88.7 °F 88.8 °F 61.2 °F 40% 30.14 in 10.0 mi WNW 6.9 mph - N/A   Clear
6:15 PM 87.8 °F 88.2 °F 61.9 °F 42% 30.14 in 10.0 mi West 8.1 mph - N/A   Clear
6:35 PM 86.9 °F 87.2 °F 62.1 °F 43% 30.14 in 10.0 mi WNW 6.9 mph - N/A   Clear
6:55 PM 86.5 °F 86.8 °F 61.9 °F 43% 30.14 in 10.0 mi West 4.6 mph - N/A   Clear
7:15 PM 86.0 °F 86.6 °F 62.6 °F 45% 30.14 in 10.0 mi West 4.6 mph - N/A   Clear
7:35 PM 84.4 °F 85.6 °F 63.7 °F 50% 30.14 in 10.0 mi West 3.5 mph - N/A   Clear
7:55 PM 82.9 °F 84.6 °F 64.9 °F 54% 30.15 in 10.0 mi Calm Calm - N/A   Clear
8:15 PM 79.0 °F - 67.5 °F 68% 30.15 in 10.0 mi Calm Calm - N/A   Clear
8:35 PM 77.2 °F - 68.0 °F 73% 30.16 in 10.0 mi Calm Calm - N/A   Clear
8:55 PM 74.7 °F - 68.9 °F 82% 30.16 in 10.0 mi Calm Calm - N/A   Clear
9:15 PM 73.4 °F - 68.0 °F 83% 30.16 in 10.0 mi Calm Calm - N/A   Clear
9:35 PM 73.2 °F - 67.1 °F 81% 30.17 in 10.0 mi Calm Calm - N/A   Clear
9:55 PM 71.2 °F - 67.1 °F 87% 30.18 in 10.0 mi Calm Calm - N/A   Clear
10:15 PM 70.3 °F - 66.9 °F 89% 30.17 in 10.0 mi Calm Calm - N/A   Clear
10:35 PM 70.0 °F - 66.4 °F 88% 30.18 in 10.0 mi Calm Calm - N/A   Clear
10:55 PM 69.8 °F - 66.4 °F 89% 30.18 in 10.0 mi Calm Calm - N/A   Clear
11:15 PM 69.4 °F - 65.5 °F 87% 30.18 in 10.0 mi Calm Calm - N/A   Clear
11:35 PM 68.0 °F - 65.5 °F 92% 30.19 in 10.0 mi Calm Calm - N/A   Clear
11:55 PM 67.5 °F - 65.3 °F 93% 30.19 in 10.0 mi Calm Calm - N/A   Clear